Wind_Speed
34 34 34 36 40 39 36 36 39 39 37 36 37 38 40 43 45 45 45 44 44 47 51 50 53 54 52 50 48 45 45 47 48 47 47 45 42 41 39 38 38 37 31 25 23 24 26 28 29 30 31 31 32 32 33 33 34 34 32 32 31 31 31 33 34 36 38 38 36 33 30 27 24 23 23 23 25 26 28 30 31 32 33 35 36 37
38 38 39 41 41 38 36 36 37 38 37 38 39 40 42 43 46 47 45 43 42 47 52 49 50 54 52 51 49 46 46 48 48 47 46 45 42 40 38 37 36 33 29 26 25 24 25 26 28 29 31 32 32 33 33 34 34 34 33 32 32 31 32 33 33 34 36 36 34 31 27 25 24 24 24 25 25 27 28 29 30 31 33 35 36 37
42 44 43 40 38 36 34 34 35 36 37 38 38 40 43 43 46 49 44 42 42 45 49 48 50 55 54 52 51 48 47 48 46 45 44 42 39 37 36 36 34 32 30 27 23 23 24 26 28 29 30 31 31 32 34 34 34 33 32 31 31 31 31 32 33 34 33 32 30 29 26 25 25 25 25 25 25 26 26 26 28 29 31 33 34 35
45 45 41 36 36 35 34 35 34 36 38 40 39 41 44 44 44 48 46 42 42 44 47 48 53 58 56 55 53 47 45 45 41 40 40 39 37 37 37 36 33 31 28 25 22 21 25 26 26 27 27 28 29 31 32 33 33 32 30 30 29 29 29 31 32 32 31 29 29 28 26 26 26 25 24 23 23 24 24 25 27 28 29 30 32 33
50 45 40 39 40 38 38 39 36 38 43 44 42 41 44 44 41 45 45 40 40 43 44 45 52 57 51 46 47 43 41 43 41 41 41 40 39 37 36 34 31 30 25 24 23 21 23 23 24 25 25 24 25 26 28 29 30 29 27 28 29 29 29 29 30 30 30 29 28 27 26 26 24 23 23 23 23 23 24 25 26 27 28 30 32 34
50 44 40 42 42 39 40 40 36 36 44 46 42 39 40 40 38 39 38 35 36 36 34 31 30 35 37 37 46 48 47 47 43 42 42 40 38 36 34 33 30 28 25 23 23 21 21 21 23 23 20 20 22 24 25 26 27 27 28 29 29 29 28 28 29 29 30 28 27 26 25 23 22 22 23 23 22 23 25 26 27 28 29 31 33 35
46 42 40 41 39 37 36 36 34 33 40 46 40 35 34 35 37 35 31 29 29 27 29 24 15 26 45 48 49 50 47 44 40 39 40 38 37 35 30 29 25 23 23 22 22 21 21 21 22 21 18 20 22 23 25 26 28 28 28 29 29 28 28 27 28 28 28 27 25 24 23 22 23 22 22 22 23 24 26 27 28 28 30 31 33 35
43 40 39 38 36 33 32 33 34 30 35 43 39 33 32 33 35 34 32 30 31 36 34 25 17 26 47 53 48 45 38 33 32 32 34 31 27 25 22 22 21 20 21 21 22 21 20 20 22 22 21 22 23 24 26 27 28 29 28 27 28 27 27 27 28 28 26 25 24 23 23 23 23 21 21 23 24 25 27 27 28 28 29 30 32 34
41 40 41 38 34 32 34 34 33 29 32 38 36 35 34 34 35 35 36 32 33 37 23 11 10 16 39 52 41 30 21 17 20 21 22 21 20 24 25 23 21 17 17 19 21 20 19 21 23 25 24 24 24 25 27 27 27 28 27 27 28 27 27 27 27 27 25 24 23 23 23 22 21 21 22 24 25 26 27 27 27 28 28 29 30 32
38 39 40 38 36 36 36 34 33 32 32 34 34 35 34 32 33 31 33 32 29 28 16 10 11 11 32 42 19 7 8 7 12 12 10 13 20 27 25 20 18 18 20 21 24 23 21 22 24 26 26 25 26 25 25 25 26 27 26 26 26 25 26 27 27 27 25 25 23 22 22 21 21 22 23 24 26 27 27 27 28 28 28 27 28 30
38 40 40 39 38 38 36 33 35 34 32 33 33 35 33 32 32 28 29 27 17 19 23 24 22 14 18 18 2 1 5 4 7 7 9 16 22 22 16 20 28 29 28 24 24 23 21 22 25 27 27 24 23 22 22 23 23 24 24 23 23 23 24 27 28 28 27 25 24 22 21 21 22 23 25 25 26 26 27 27 27 27 27 27 27 28
39 40 40 40 38 37 37 36 37 35 34 34 33 34 29 24 22 16 16 13 5 11 20 20 18 18 21 14 4 4 6 7 12 16 19 21 22 21 17 27 37 35 30 23 21 21 21 23 25 27 27 22 18 19 20 20 19 19 19 19 19 20 23 26 28 29 28 27 26 25 24 23 23 24 26 26 25 25 26 27 28 28 28 27 27 27
41 42 39 37 37 36 35 36 36 35 35 34 34 32 20 10 8 5 3 3 7 16 19 13 8 18 37 40 31 28 29 31 29 23 19 17 21 28 27 29 29 21 18 18 20 23 22 22 23 25 24 19 15 18 19 18 17 17 17 17 17 18 20 24 28 30 30 30 30 29 29 27 26 27 28 28 26 24 24 26 28 28 28 27 26 27
39 42 40 37 37 36 35 37 36 36 37 36 36 32 19 7 1 2 5 3 9 20 23 18 13 19 36 42 37 36 33 28 19 15 18 21 28 33 28 24 18 9 13 24 29 28 24 23 22 21 21 18 15 17 19 18 17 18 17 18 18 18 20 22 25 28 30 31 32 33 33 32 31 30 29 29 27 25 24 25 27 27 28 28 26 26
27 32 41 37 33 35 35 32 30 32 36 37 36 32 28 22 10 5 6 6 8 13 13 11 12 15 25 27 25 24 22 22 25 30 36 34 31 27 21 18 17 15 20 27 29 25 22 23 23 20 22 20 17 16 18 19 19 19 18 19 20 21 22 23 24 27 29 30 33 35 36 35 34 33 31 29 29 29 27 24 25 26 27 28 27 27
28 36 47 38 32 35 33 30 28 26 30 36 34 29 32 35 28 19 19 21 14 7 9 13 16 31 43 45 46 42 40 43 41 37 30 23 22 21 21 21 20 22 22 20 19 21 22 24 24 23 26 22 19 16 18 19 19 19 18 19 23 24 25 26 27 28 28 29 32 36 38 38 38 36 34 32 31 32 30 27 25 25 27 28 29 30
28 36 46 40 36 37 32 30 30 26 27 31 29 31 35 38 37 29 22 25 17 7 16 23 25 38 46 51 54 46 42 40 28 20 16 18 25 23 22 25 22 21 20 17 18 22 26 29 27 25 27 23 21 18 18 18 19 20 20 22 24 26 29 29 29 30 30 30 32 34 38 40 40 39 37 35 34 34 33 31 27 25 27 28 29 30
33 37 46 47 45 45 41 37 33 31 33 32 30 33 33 28 31 27 11 8 10 7 15 26 34 37 30 32 37 28 27 30 24 23 24 24 21 14 13 17 17 17 17 18 21 25 30 34 31 28 28 24 22 20 19 19 19 20 22 26 27 27 31 31 31 32 32 33 33 34 37 39 41 41 39 38 37 36 35 33 31 28 27 28 29 30
37 36 41 48 49 46 44 41 36 36 36 36 36 36 30 21 21 25 14 5 9 7 7 19 33 37 33 38 41 36 35 35 29 26 24 18 13 10 12 13 13 16 19 20 22 25 31 35 35 32 29 26 24 22 21 20 21 22 25 30 29 28 30 32 33 35 36 36 35 35 36 39 41 43 43 42 40 39 36 34 33 32 30 29 29 30
35 31 29 38 46 41 35 36 38 39 37 38 38 37 37 32 24 23 21 13 11 9 8 13 17 25 40 48 46 42 38 33 28 23 19 18 18 19 20 18 18 21 23 24 25 26 28 33 38 37 32 29 27 24 23 23 24 27 30 33 29 27 30 33 35 36 38 38 37 36 37 38 40 43 45 45 42 40 37 34 34 34 33 33 32 31
34 32 26 30 38 37 33 33 35 35 33 33 37 38 39 38 30 21 21 24 19 10 7 9 9 20 42 51 47 46 40 33 33 30 27 29 30 31 31 31 34 35 33 35 37 36 33 33 38 40 36 33 29 27 27 28 30 33 36 36 30 27 31 34 35 36 38 39 38 38 38 38 39 42 45 46 45 42 39 37 36 34 35 37 36 35
22 24 25 27 32 38 40 38 33 31 28 27 31 35 36 39 35 19 13 25 31 21 14 12 9 17 38 51 53 54 48 44 45 45 47 46 41 42 44 42 44 45 42 39 37 35 34 36 39 41 41 39 33 30 32 33 35 37 38 37 32 29 32 35 36 37 39 40 41 40 38 37 39 41 43 46 48 46 41 38 37 36 37 37 38 38
25 22 24 29 35 40 42 40 36 33 31 28 26 28 30 35 38 26 15 20 26 23 22 21 15 15 30 48 58 59 55 55 56 55 55 51 48 52 53 50 47 47 46 43 37 30 29 35 41 43 46 46 40 35 34 35 37 39 39 39 35 32 33 35 37 38 40 42 43 42 40 39 40 41 43 45 48 48 44 40 39 38 38 38 38 39
35 27 24 29 35 39 42 44 45 43 40 34 30 31 30 32 39 38 33 31 25 21 22 18 11 13 25 44 55 55 54 56 58 58 59 58 58 59 57 52 47 45 45 44 42 35 31 37 43 45 49 50 47 41 37 37 40 42 42 41 40 38 34 35 37 39 41 43 44 44 44 43 42 42 43 43 45 49 48 44 41 40 40 38 39 40
36 28 23 18 18 24 28 28 33 40 42 40 38 37 34 34 36 36 39 36 25 25 30 19 12 24 40 50 53 54 60 66 66 67 67 65 62 58 54 47 41 40 42 42 43 39 37 40 43 46 51 51 49 44 41 42 44 46 47 48 46 42 36 35 38 40 42 43 44 46 47 47 48 46 45 44 44 46 49 48 45 42 41 39 38 40
42 40 34 23 12 12 16 18 24 32 35 36 39 41 42 43 41 40 41 32 20 28 39 30 25 41 55 56 56 60 67 69 68 68 65 61 58 55 50 44 39 39 40 42 43 38 37 43 45 49 53 51 49 46 45 45 48 53 60 61 52 43 36 35 38 41 43 43 44 46 47 48 50 50 48 46 45 45 48 51 50 45 42 39 38 39
46 47 45 43 37 34 37 42 44 44 41 40 42 47 50 51 52 51 46 39 36 40 44 44 46 54 58 57 61 65 66 63 62 63 61 56 52 50 49 47 45 44 43 46 48 39 36 43 49 52 54 51 49 49 49 52 56 62 68 63 51 41 36 35 37 41 43 43 44 46 47 49 50 51 50 49 48 47 47 51 52 49 45 41 40 41
46 47 46 50 53 51 53 55 54 52 51 50 50 52 53 53 56 56 51 52 54 42 36 47 56 56 58 61 62 64 64 62 60 58 54 49 47 47 48 48 48 49 51 54 54 46 40 43 48 50 52 53 54 56 58 61 60 59 58 53 46 41 37 35 36 39 42 44 45 46 47 48 48 50 50 49 49 50 50 51 51 50 47 43 43 44
45 48 47 49 53 53 54 55 54 55 55 53 52 52 54 56 57 59 60 63 62 49 43 53 57 55 59 61 61 64 66 65 62 57 52 49 46 44 43 45 50 55 58 59 56 51 47 48 50 51 50 52 53 54 54 52 48 45 44 44 44 41 38 35 35 38 40 43 45 45 46 47 47 48 49 48 49 52 53 51 50 49 48 46 45 46
41 46 46 47 52 54 53 54 55 57 58 57 56 55 57 59 60 63 66 65 63 61 62 64 63 64 66 63 65 69 68 67 66 63 59 54 48 45 46 50 56 59 60 59 57 56 53 52 52 51 49 48 48 47 43 40 39 39 39 41 42 43 41 38 38 41 44 46 47 45 45 46 47 48 48 48 50 52 53 52 51 50 50 48 47 46
32 38 39 41 47 47 47 50 52 53 55 56 57 58 58 60 62 64 65 64 63 65 68 67 65 68 70 69 71 72 70 69 68 66 64 57 52 54 57 59 60 60 61 60 59 59 58 54 51 50 49 48 47 44 41 40 40 41 42 42 42 43 43 41 42 45 47 50 50 46 44 46 48 48 48 50 51 52 52 52 51 51 51 51 49 49
27 31 32 33 38 39 40 43 46 51 55 56 59 61 61 62 63 63 63 62 62 64 65 63 62 66 67 65 64 64 64 64 64 65 63 60 60 63 63 61 61 61 61 61 60 59 59 57 54 52 52 50 47 45 44 43 43 43 44 43 39 40 43 45 48 49 50 52 52 50 51 50 49 49 50 52 51 51 51 52 51 51 51 52 52 52
35 36 35 32 33 35 34 35 40 42 37 38 48 55 58 60 62 62 62 61 61 64 64 61 58 57 53 47 47 49 51 53 54 54 55 58 61 60 58 59 60 60 61 62 61 60 60 59 58 57 57 54 51 48 47 46 46 44 43 42 39 38 43 50 54 55 55 56 55 55 55 52 50 51 52 52 51 50 50 51 51 51 52 53 53 52
44 44 43 39 34 31 31 35 37 27 18 26 42 47 48 51 53 55 57 57 57 57 57 53 47 44 41 41 44 46 47 48 47 45 47 51 54 55 56 58 58 58 59 58 58 58 58 58 59 59 59 59 56 53 50 49 49 46 43 43 42 42 45 48 51 53 55 55 54 54 54 51 50 52 51 50 50 49 49 50 51 52 52 51 50 49
51 51 50 46 40 38 40 38 26 14 17 31 37 35 37 42 45 48 51 52 50 48 48 45 37 34 37 39 41 44 47 50 48 46 48 50 51 55 58 59 59 58 57 55 55 55 54 55 57 58 59 59 58 56 53 51 49 46 42 42 43 43 44 44 45 46 48 49 50 50 50 49 49 49 49 48 47 46 46 46 47 47 46 45 44 44
44 45 45 44 40 37 34 27 18 18 30 37 35 36 42 43 42 41 39 40 41 41 42 38 28 24 27 30 32 37 44 50 50 48 49 50 50 53 56 58 60 59 56 54 52 51 50 50 51 53 54 54 53 53 52 49 46 42 40 39 39 39 40 40 41 41 43 44 45 45 44 44 44 44 44 43 42 42 42 42 42 41 40 40 40 40
32 34 37 39 37 32 31 31 33 37 41 40 37 35 33 32 33 31 25 24 26 23 19 19 18 19 20 21 22 24 30 39 44 42 42 43 44 47 50 52 55 55 54 52 49 48 47 45 44 44 44 44 44 44 44 42 39 38 38 38 38 39 40 41 41 40 41 42 41 40 39 39 39 39 39 38 39 39 39 39 39 38 39 39 40 40
27 29 32 35 34 33 32 28 25 23 19 16 18 17 15 17 23 27 25 20 15 9 4 11 17 18 16 16 17 16 18 23 28 30 30 31 33 37 41 43 44 46 46 45 45 46 44 42 40 38 36 36 35 34 34 35 35 37 37 37 38 39 41 43 43 42 42 41 40 38 37 36 36 36 36 36 36 36 36 37 37 39 39 39 39 39
27 29 32 36 35 35 32 19 12 16 13 10 16 22 21 17 17 22 25 16 8 9 16 26 27 24 24 25 27 27 27 27 24 22 22 22 22 25 29 32 34 36 37 36 38 41 42 42 41 38 36 34 33 31 30 31 33 35 37 38 38 38 39 41 42 43 43 42 41 40 38 36 36 35 35 35 35 35 36 37 38 39 39 39 40 40
26 25 28 31 31 33 33 24 19 22 16 9 15 22 21 15 12 12 13 9 16 27 34 38 36 33 36 39 40 40 40 40 38 34 33 33 29 26 29 30 30 32 33 33 33 35 38 39 39 39 36 32 31 30 29 30 30 31 34 37 38 37 37 39 40 40 40 41 41 41 41 39 37 36 36 36 37 37 38 38 38 38 38 39 40 41
24 23 24 28 29 30 31 27 24 23 17 12 15 19 23 26 20 11 12 25 38 44 44 42 40 40 42 44 45 45 43 44 46 46 46 46 42 39 40 40 39 38 37 37 37 36 37 37 37 38 36 32 30 29 28 28 29 28 29 32 35 36 37 38 38 37 37 37 38 40 41 41 40 39 37 37 38 38 38 37 38 37 37 39 40 41
20 20 19 21 23 24 26 26 24 24 24 22 22 23 28 31 26 23 31 41 43 43 43 41 40 41 42 43 44 46 46 46 48 50 52 53 52 51 50 49 48 47 46 45 45 44 42 40 38 37 37 35 33 31 30 30 28 27 28 29 31 33 36 38 40 39 38 37 37 38 40 41 41 40 39 37 37 37 37 38 39 39 39 40 40 41
23 20 20 21 23 24 24 21 17 17 20 23 27 32 33 34 35 38 42 39 34 36 41 41 40 39 39 41 43 45 47 48 48 50 52 55 56 57 57 57 57 56 55 54 53 52 51 47 43 40 40 39 38 37 37 36 33 31 30 31 31 32 33 35 37 39 40 40 39 38 38 40 40 40 39 38 36 35 36 39 41 41 41 41 41 41
31 29 28 26 21 17 16 15 16 21 27 30 37 44 43 41 41 40 40 38 36 39 42 43 42 40 39 41 44 44 44 46 46 48 50 52 54 56 58 60 60 61 62 62 61 59 58 56 52 49 46 45 45 45 44 43 42 39 36 35 35 35 34 35 34 34 36 38 39 38 38 39 41 40 38 37 36 36 36 38 40 42 44 44 44 44
32 30 29 29 27 26 28 33 38 42 43 42 45 46 44 42 39 35 35 37 40 42 44 44 44 44 44 45 46 45 45 44 44 46 47 49 52 53 55 58 59 60 61 62 62 62 62 62 62 60 57 55 54 54 53 51 50 48 44 42 41 41 40 39 39 37 35 35 36 36 36 39 40 39 35 33 34 35 36 38 40 43 45 46 47 47
36 34 33 36 39 39 41 44 45 44 42 42 44 43 41 39 37 36 36 38 41 44 44 44 44 46 46 46 47 46 46 45 46 46 47 48 49 51 53 55 56 57 58 59 61 62 63 64 65 66 66 65 62 61 59 58 57 55 52 50 49 49 47 46 45 43 42 40 39 38 36 37 37 36 34 33 34 35 37 38 40 41 44 46 47 47
40 38 38 38 38 38 40 42 41 41 42 43 43 42 40 38 37 38 40 42 44 45 45 45 46 46 45 45 45 45 46 46 47 48 48 49 49 50 52 53 54 55 56 58 59 60 61 62 64 65 66 67 66 63 60 59 58 57 56 55 54 53 53 52 50 49 48 47 46 44 42 41 39 39 38 37 37 38 39 40 41 41 41 42 42 43
43 38 36 37 38 39 42 43 42 42 43 42 41 41 40 38 39 41 43 46 47 47 48 48 47 46 45 45 44 45 46 46 47 49 51 51 52 52 53 53 54 55 56 56 57 58 58 59 60 60 61 63 65 64 60 59 57 55 54 54 53 53 54 55 54 53 53 52 51 50 50 49 47 45 43 41 41 42 42 42 42 43 43 42 42 42
44 41 40 41 42 43 45 45 44 45 45 42 40 40 40 40 43 44 45 47 48 49 49 49 47 47 47 46 45 46 47 47 49 51 53 54 55 55 55 55 56 56 56 56 56 57 57 58 58 58 59 59 60 60 59 58 56 53 52 52 51 51 53 54 54 54 54 54 54 54 55 55 54 52 49 47 45 44 44 44 43 43 44 45 46 46
43 45 46 44 43 46 48 46 44 45 46 43 40 40 40 43 45 47 47 48 49 49 50 49 48 48 47 46 45 46 48 50 51 53 56 57 57 57 58 58 58 58 58 58 58 58 58 58 59 59 60 59 58 58 57 57 55 53 51 50 50 49 50 52 53 53 53 53 54 54 55 56 56 56 55 53 49 47 46 47 45 44 45 45 44 45
45 47 47 45 46 49 49 47 45 45 47 44 41 40 43 45 47 48 49 49 50 50 50 50 49 49 47 45 45 47 50 52 53 55 57 58 59 59 60 60 61 61 61 61 61 61 61 61 61 61 61 61 60 58 58 57 56 54 51 50 49 48 48 49 50 51 53 52 51 52 53 54 55 55 55 54 53 51 49 49 47 46 47 47 46 45
Wind_Direction
274 268 263 264 266 268 273 277 281 286 289 287 284 282 281 280 281 285 288 291 294 289 285 287 288 288 290 292 293 292 292 288 286 287 288 288 290 289 287 285 287 290 288 288 286 275 264 259 256 255 255 255 256 258 261 264 264 264 264 262 260 259 257 255 253 250 248 248 250 253 255 255 252 249 248 251 254 258 262 263 265 267 268 269 270 271
270 264 264 267 271 277 281 283 284 284 283 282 281 280 280 280 284 289 291 293 295 287 285 291 290 289 290 291 291 291 289 286 286 288 289 289 290 288 286 287 290 292 289 287 283 275 266 262 258 254 253 254 256 259 262 263 263 264 263 262 260 257 254 252 251 249 247 245 247 249 249 246 242 242 245 248 252 256 259 261 264 266 267 268 270 271
267 264 268 273 279 284 283 282 282 282 281 279 278 278 278 283 289 291 292 296 297 290 289 294 291 288 290 289 288 288 286 285 287 289 288 288 287 285 288 291 292 291 289 287 282 274 267 264 260 255 253 254 256 259 262 263 263 264 265 265 263 259 255 250 248 246 243 241 242 241 237 234 236 241 245 248 251 255 260 265 269 270 270 271 272 272
264 267 275 281 283 283 280 280 280 280 279 276 276 276 277 285 289 287 293 300 298 292 292 294 290 287 287 286 285 285 285 285 286 286 286 286 286 287 291 292 291 290 288 286 281 271 264 261 258 256 255 256 258 259 261 263 264 265 266 264 262 259 254 249 247 244 239 235 232 229 228 232 237 242 247 251 256 262 268 272 273 273 272 272 271 271
267 273 279 279 278 278 277 277 276 277 279 277 276 276 279 287 288 287 295 299 295 291 291 294 291 287 286 287 287 287 286 285 286 286 286 285 286 289 291 290 290 290 287 284 281 271 260 256 254 254 255 259 263 265 264 263 263 262 261 260 258 255 251 247 244 241 236 230 226 226 229 236 242 247 253 259 264 268 270 271 270 270 269 268 268 267
271 275 277 275 275 275 274 274 274 276 279 277 276 280 285 289 289 290 295 296 292 289 292 298 297 291 291 289 289 291 290 289 289 288 286 286 287 288 289 289 289 288 286 282 279 272 262 257 251 248 255 271 273 269 266 262 259 257 259 260 258 254 250 246 242 237 232 227 226 230 235 242 249 254 260 265 267 267 266 265 265 265 265 265 267 267
272 275 274 274 275 274 271 271 274 276 275 274 277 286 291 290 290 290 292 291 286 287 292 291 282 290 293 290 289 293 293 293 294 292 290 290 290 290 290 291 289 285 284 280 277 275 269 261 250 244 261 280 274 264 260 257 255 256 260 263 260 255 252 248 242 234 228 227 228 234 241 247 253 258 264 267 265 263 262 262 262 263 265 266 268 268
272 276 275 275 276 272 267 271 280 280 271 273 282 289 288 288 289 289 290 287 285 290 291 282 270 279 285 288 293 295 294 295 295 295 297 298 297 298 298 295 292 288 284 280 279 277 270 262 249 247 266 277 269 262 260 256 254 257 260 261 256 252 251 247 239 232 228 229 232 240 246 250 255 263 268 266 263 262 262 263 265 266 267 268 269 269
272 275 275 274 272 270 272 279 287 282 271 275 284 285 282 284 285 284 286 285 289 295 291 275 269 267 279 288 297 299 295 299 302 303 306 305 305 307 305 298 295 294 289 282 284 281 270 265 252 249 264 272 267 265 264 259 255 256 257 254 249 246 246 242 235 231 229 232 238 245 249 252 260 269 271 268 265 264 264 265 266 266 267 268 269 269
274 274 273 270 268 273 279 284 283 277 273 277 281 280 279 279 279 280 282 282 288 290 270 249 261 262 285 291 296 296 286 305 318 323 319 306 308 310 308 300 297 300 297 289 290 286 270 263 256 251 262 270 269 268 266 263 259 258 258 253 248 245 242 238 234 231 231 237 245 251 254 259 269 275 274 271 268 265 265 264 264 265 266 266 267 268
275 273 271 269 272 276 279 279 276 273 271 273 273 273 275 276 277 276 275 277 287 279 263 265 267 251 276 294 337 232 278 346 348 329 308 301 309 311 300 295 300 303 302 292 286 282 267 260 255 253 264 270 267 268 269 267 262 259 258 253 249 245 240 236 234 234 236 242 250 257 262 267 274 279 278 274 270 267 264 262 261 262 263 263 263 264
273 271 270 273 274 275 276 273 272 270 267 267 266 266 269 275 278 276 268 262 249 267 270 277 273 240 238 261 294 256 263 300 296 294 293 290 300 305 291 294 304 306 302 292 281 278 268 260 252 252 263 266 265 275 276 270 263 255 252 251 249 246 242 239 237 239 242 249 256 260 264 268 274 281 284 280 273 267 263 259 258 259 260 262 262 263
272 270 272 275 273 271 270 267 265 264 261 260 256 254 256 274 286 273 246 213 219 254 268 277 262 235 245 258 267 267 275 286 284 287 289 275 289 299 290 290 301 304 295 290 293 291 278 264 254 252 256 255 266 280 275 269 263 255 252 252 254 254 251 248 246 248 250 255 259 261 261 264 271 280 288 288 281 272 265 258 255 255 258 260 260 261
275 275 271 268 268 269 265 261 261 263 263 259 253 246 234 218 248 254 254 267 252 259 267 264 244 246 261 269 275 275 282 289 283 282 289 283 288 295 288 280 279 269 279 291 297 295 281 264 258 253 241 241 267 274 264 266 267 262 260 257 259 261 260 259 258 258 260 262 263 262 261 263 268 276 284 289 288 282 272 262 256 254 255 258 258 259
272 276 274 268 266 269 266 263 267 270 268 266 263 254 239 229 219 218 237 241 257 272 271 238 215 251 271 276 282 284 285 284 284 289 294 291 286 284 279 266 251 256 285 294 290 287 276 262 261 249 228 239 270 266 254 260 264 265 266 266 265 263 260 260 263 266 267 269 267 264 263 264 268 273 278 285 289 288 283 275 263 256 255 257 257 257
261 267 275 275 270 270 269 269 270 264 259 261 258 244 239 243 243 240 244 250 264 298 267 229 230 259 269 273 277 280 281 282 287 290 290 289 287 286 282 273 261 264 281 288 277 277 275 267 265 248 228 243 269 262 255 258 258 261 266 270 271 267 262 258 259 266 269 270 269 266 264 265 267 270 274 281 286 287 288 285 274 262 257 257 257 256
258 264 272 276 277 277 276 273 269 256 249 251 243 237 248 254 249 242 246 255 260 278 264 256 258 266 273 279 280 281 284 286 285 277 276 293 298 296 286 279 275 272 278 281 270 269 269 268 269 252 234 249 267 261 259 259 256 260 269 280 277 267 263 260 258 263 268 270 271 268 267 266 267 269 273 277 281 284 286 287 283 273 262 259 259 259
264 267 271 274 275 274 273 274 270 257 247 240 241 251 257 252 242 237 238 256 245 248 260 257 263 270 272 278 281 283 285 282 275 273 285 297 298 298 290 283 284 283 284 286 277 269 264 264 268 257 242 253 265 261 260 259 255 259 274 292 289 269 260 260 260 261 265 269 271 269 269 268 267 268 271 273 276 279 282 284 284 282 273 264 261 262
268 265 267 270 272 271 269 267 262 252 242 235 243 252 248 238 233 225 214 220 232 236 250 245 257 267 265 265 273 277 279 281 282 281 282 282 274 282 293 286 282 284 286 290 288 277 265 263 266 261 251 254 263 264 262 257 258 266 282 297 294 273 261 258 258 258 261 267 271 270 270 269 267 267 268 270 272 275 279 280 281 281 281 276 270 266
263 257 260 265 267 270 267 258 252 250 244 238 239 241 240 242 241 224 218 219 223 239 252 239 245 259 262 266 272 277 279 281 280 273 265 268 271 276 281 276 273 279 278 277 281 277 266 263 266 264 255 255 261 264 259 257 266 279 294 302 290 268 257 255 255 256 258 264 270 270 267 267 267 267 267 267 268 272 276 276 276 278 281 283 280 275
257 254 256 257 259 263 260 255 254 255 252 245 240 238 239 240 240 240 236 228 230 243 248 244 239 246 259 268 273 274 277 276 275 274 274 279 285 285 286 285 283 285 281 276 279 277 262 257 267 266 255 251 257 261 260 264 274 285 299 304 291 266 254 252 254 254 255 261 267 269 266 264 265 265 266 265 265 269 272 273 275 277 279 281 282 281
249 251 255 255 251 253 255 256 260 261 262 262 253 248 250 247 243 249 248 235 237 242 244 255 258 244 254 265 270 270 272 274 276 279 281 284 288 289 291 294 292 290 290 288 290 284 262 256 271 269 252 247 253 260 262 269 277 285 299 304 291 271 257 252 252 254 256 260 264 267 267 264 263 262 263 263 263 265 268 272 274 275 276 278 280 280
258 258 257 256 253 252 254 255 257 261 265 269 264 256 257 253 245 242 247 247 245 249 255 261 265 255 253 259 265 269 273 278 281 282 284 288 292 292 293 298 297 294 294 293 293 287 263 259 272 268 251 247 251 259 267 273 277 282 294 300 290 274 262 254 253 254 256 259 262 265 267 265 263 262 261 261 261 262 263 268 271 271 274 275 275 276
269 263 258 262 263 262 261 260 260 262 263 262 260 257 254 253 251 249 252 258 259 261 263 265 265 255 252 258 266 274 281 286 287 287 288 291 295 295 295 297 297 296 295 292 290 283 265 261 267 260 250 246 249 258 270 277 279 280 287 294 288 276 265 256 253 254 255 257 260 263 265 265 265 264 262 261 260 261 261 263 266 268 270 271 271 272
272 262 256 260 272 273 268 265 261 260 260 259 258 257 256 257 258 255 255 258 257 254 253 255 255 253 260 267 272 279 285 288 289 289 290 292 294 295 295 297 297 294 292 291 291 284 269 265 261 248 244 245 247 257 268 274 279 280 283 288 284 273 265 257 254 255 256 256 257 259 262 265 266 266 265 263 260 259 258 259 262 264 264 266 268 269
271 264 258 248 244 258 259 257 256 257 261 262 260 260 262 263 262 260 258 255 253 254 250 247 255 261 266 271 273 277 283 287 290 293 293 291 291 293 296 297 295 294 294 293 294 287 272 269 261 246 243 245 248 257 267 273 279 281 281 282 277 268 264 261 257 256 258 258 256 256 258 260 263 265 266 265 262 258 256 255 258 260 258 260 264 265
266 261 257 252 248 249 254 260 265 264 261 260 261 262 262 263 262 261 258 254 257 262 255 251 259 263 265 267 269 274 280 283 288 294 294 292 292 294 296 296 296 298 298 295 295 290 274 268 262 250 245 248 254 263 271 277 279 279 279 276 266 260 264 264 260 258 259 260 258 255 255 256 259 262 264 265 263 259 255 252 253 255 254 255 259 263
260 255 256 256 255 256 259 264 269 268 262 260 261 262 262 262 261 257 255 255 258 260 258 257 260 259 260 264 267 272 277 279 283 289 293 294 293 293 295 297 298 300 298 295 294 290 280 272 266 258 256 261 266 270 273 274 274 274 274 268 257 256 263 264 262 260 259 259 258 256 256 256 258 260 261 262 260 258 255 252 250 250 250 253 257 262
261 257 259 260 259 260 263 266 268 268 265 263 261 261 262 262 260 257 256 257 257 255 256 261 261 259 261 265 268 272 276 279 281 284 288 289 289 291 295 298 297 297 295 294 293 290 286 283 281 277 274 271 270 270 269 266 265 268 268 262 255 258 262 263 265 263 259 258 258 256 257 258 259 260 260 259 257 256 255 254 251 248 247 252 257 261
263 261 262 262 262 262 263 264 266 266 265 264 261 261 262 262 261 260 260 260 259 257 259 262 262 262 264 266 268 271 275 277 278 280 281 283 287 291 293 292 290 291 291 290 290 289 287 286 285 281 277 274 271 271 266 259 259 264 263 260 259 260 262 265 268 266 262 261 259 257 256 257 258 259 258 257 256 256 255 254 254 251 247 251 257 260
261 265 267 266 264 261 261 263 263 262 263 263 263 264 263 261 260 259 260 261 260 260 262 263 261 262 266 268 269 270 273 274 274 275 278 283 287 287 286 285 284 285 286 286 286 287 287 287 283 277 275 274 274 273 269 264 264 265 265 264 263 262 262 264 267 268 266 263 261 259 257 256 257 257 257 257 255 255 255 254 254 253 249 250 255 260
273 276 277 275 269 267 268 267 265 265 264 261 261 263 263 260 258 258 260 261 260 261 264 263 262 265 270 273 272 271 272 272 272 274 278 280 280 279 280 281 282 283 284 285 286 286 287 287 284 279 277 276 274 273 272 271 269 268 268 268 266 263 261 261 263 265 266 265 263 263 263 261 259 258 257 257 257 257 256 254 253 252 249 249 254 260
278 282 284 282 276 274 275 274 273 272 264 253 255 260 263 263 262 262 262 264 266 266 264 262 263 267 270 270 270 269 268 268 270 272 274 274 274 275 278 280 281 282 283 284 285 285 285 285 283 282 280 278 277 276 273 273 273 271 269 268 265 262 260 259 260 262 263 264 264 265 266 264 261 259 258 259 259 258 257 254 251 249 249 251 255 258
276 281 285 284 280 279 281 284 283 278 266 263 268 272 273 272 271 269 269 272 274 269 263 262 265 269 268 267 267 266 265 266 266 265 265 267 269 271 274 277 279 281 282 282 283 283 283 284 283 282 282 281 281 280 276 274 277 276 272 267 261 257 255 256 258 260 261 263 263 264 264 262 260 261 260 260 260 259 257 254 251 250 250 252 255 256
277 279 281 280 278 278 282 283 279 268 270 277 280 281 278 277 276 273 271 273 272 267 264 266 270 270 267 266 265 263 263 263 262 261 261 263 265 267 269 272 275 277 279 280 281 281 281 282 282 281 282 282 282 283 280 278 280 280 276 269 262 257 254 254 256 259 260 260 261 261 261 262 262 263 262 261 259 257 254 252 250 250 251 253 254 255
279 278 276 274 274 276 277 270 260 270 280 282 283 281 276 273 269 265 267 270 269 268 268 269 270 271 266 263 261 260 261 261 261 263 264 263 264 265 266 269 271 273 275 277 278 279 279 279 280 281 281 281 283 283 283 283 281 276 270 265 260 256 254 253 254 257 258 258 258 260 261 262 261 260 259 256 254 253 252 251 251 252 252 253 253 252
278 278 274 268 265 265 263 261 265 274 278 277 274 269 266 262 257 257 266 273 269 266 266 267 272 275 269 265 265 260 258 258 257 257 258 257 257 258 260 263 266 268 270 272 273 275 276 276 277 277 278 279 280 280 281 280 274 265 260 256 254 253 254 254 253 253 254 254 255 256 257 257 256 255 253 252 252 252 252 253 253 252 252 252 251 251
269 271 272 267 262 263 266 269 272 274 278 276 261 247 243 247 249 254 260 263 259 247 280 319 316 305 295 297 299 290 278 268 255 244 245 247 245 247 251 253 257 261 264 267 268 268 268 269 270 270 270 271 271 271 271 269 261 255 252 251 252 255 257 257 256 253 251 250 249 249 249 250 251 251 251 251 252 252 253 253 252 252 251 250 249 248
266 266 270 269 268 268 268 269 270 268 273 277 266 264 264 257 258 260 255 252 275 305 320 329 331 324 316 317 319 317 314 306 287 268 270 271 256 251 255 254 254 257 259 263 267 266 264 264 264 263 263 264 263 261 259 256 252 250 250 250 252 254 254 254 254 253 251 250 247 245 244 245 246 246 247 248 249 250 250 250 250 250 250 249 248 247
272 266 266 268 269 268 265 265 268 267 266 269 272 272 268 268 282 274 248 264 313 318 322 326 325 321 319 319 320 318 318 315 305 296 299 300 291 284 285 281 274 270 267 267 270 268 265 263 262 261 259 258 257 255 253 251 249 249 250 251 250 248 247 248 249 250 251 250 247 245 242 240 239 240 242 245 245 245 245 245 247 248 248 247 247 246
281 276 275 273 272 271 271 274 275 273 273 286 297 295 291 292 296 297 302 314 316 317 321 323 321 321 321 320 318 317 317 317 311 305 303 303 299 294 295 295 293 290 286 283 282 278 272 265 262 261 260 259 260 259 257 254 250 249 252 250 247 244 242 242 243 244 247 248 246 244 241 237 235 236 238 240 242 243 242 243 244 245 245 246 246 246
293 290 284 276 272 274 277 278 279 278 272 275 294 306 306 306 311 314 316 318 317 315 316 318 319 321 321 319 318 318 317 316 314 310 307 305 303 299 296 296 295 294 294 293 293 291 285 275 266 262 261 262 265 267 268 264 256 252 255 254 251 248 244 242 241 241 242 244 244 243 241 239 236 234 233 234 238 240 240 241 242 243 245 247 248 248
289 288 282 277 276 279 278 273 272 273 265 270 293 306 308 313 319 318 316 317 316 313 314 316 318 319 319 318 317 316 314 314 313 312 310 308 307 304 301 300 299 297 297 297 297 296 294 288 279 272 269 268 269 272 274 272 266 261 260 260 261 259 253 250 249 246 244 245 245 246 246 245 244 242 239 238 238 239 241 241 242 242 243 245 246 248
277 277 277 278 277 276 272 262 265 278 280 284 296 303 305 309 314 314 312 312 312 313 314 316 316 316 316 316 315 314 313 312 311 311 311 309 308 307 305 303 303 302 301 300 300 299 298 294 288 284 281 280 279 278 279 279 277 272 268 269 271 267 262 261 260 256 251 249 248 248 249 248 248 248 249 249 247 246 246 246 245 244 243 243 244 245
273 273 275 277 277 277 280 280 282 287 292 292 295 300 304 307 309 310 308 308 310 311 312 313 313 313 313 313 312 312 311 311 310 309 308 307 307 306 306 305 305 304 303 302 301 301 300 297 293 290 287 287 288 288 286 285 285 281 276 276 278 275 270 269 268 266 262 258 254 252 250 250 248 248 252 257 257 254 251 250 249 248 246 245 244 243
274 275 276 279 281 281 281 282 284 289 294 295 296 299 302 304 306 308 307 306 307 308 309 310 309 309 310 310 310 309 309 309 308 307 306 305 305 305 305 305 305 304 304 303 302 301 301 299 297 295 292 290 291 292 292 290 289 286 283 283 285 285 282 279 276 273 270 268 264 261 259 258 256 255 259 265 268 266 263 260 257 254 252 251 250 248
277 278 278 278 279 279 280 284 288 291 294 296 297 298 301 303 305 307 306 305 305 306 307 307 306 306 307 307 307 306 305 305 305 304 304 303 303 303 304 304 303 303 303 303 303 302 302 300 298 297 296 293 292 293 294 293 292 290 288 288 288 289 288 286 284 281 279 277 273 268 266 266 266 266 266 268 270 271 271 269 267 265 260 257 258 258
280 281 278 275 275 277 280 285 291 293 294 296 297 298 300 301 302 304 304 303 304 304 304 304 305 305 306 305 304 303 302 303 303 303 302 302 302 303 303 302 301 301 301 301 301 301 300 300 299 297 296 294 293 293 293 293 292 292 291 289 288 287 287 286 285 284 283 282 279 275 272 271 271 270 271 274 276 275 275 274 274 273 271 266 266 268
278 276 276 276 275 275 279 285 291 293 292 293 294 296 299 300 300 301 301 300 301 301 301 302 303 303 303 302 302 302 302 302 302 302 301 301 301 301 301 300 299 299 298 298 298 298 297 297 296 295 295 294 293 292 292 292 291 291 289 287 285 284 284 284 284 284 283 283 282 280 279 277 276 275 275 277 278 277 276 276 275 274 274 273 271 271
272 272 276 275 271 272 280 288 292 291 290 292 294 296 297 298 299 299 299 298 299 299 300 300 300 300 300 300 301 302 302 302 302 302 301 301 301 300 300 299 299 298 298 298 297 296 295 294 293 292 291 292 291 290 289 289 289 288 286 285 283 282 281 281 281 281 281 281 280 280 280 279 279 278 277 276 275 273 272 273 272 269 267 269 270 269
273 275 278 276 272 276 284 290 290 288 289 292 295 295 295 296 297 297 297 297 298 299 299 300 300 299 299 298 298 300 300 300 300 300 299 299 299 299 298 298 298 298 298 298 298 297 296 294 292 290 289 289 288 287 286 285 285 284 283 283 282 280 278 277 276 276 277 276 276 275 275 275 275 275 275 274 273 271 270 269 268 264 261 261 262 263
Height
3139 3136 3135 3136 3134 3135 3137 3137 3134 3133 3134 3132 3131 3130 3128 3126 3123 3125 3126 3125 3127 3117 3110 3112 3107 3103 3105 3105 3107 3110 3109 3106 3103 3103 3101 3102 3103 3103 3103 3101 3101 3100 3099 3099 3099 3098 3097 3097 3097 3096 3095 3095 3095 3095 3095 3094 3094 3094 3094 3094 3094 3095 3094 3093 3093 3093 3093 3094 3095 3097 3098 3100 3101 3102 3103 3103 3103 3104 3103 3103 3103 3103 3103 3102 3102 3102
3133 3128 3129 3131 3131 3134 3136 3135 3132 3130 3130 3128 3128 3125 3123 3122 3118 3119 3122 3122 3123 3113 3103 3107 3103 3097 3099 3099 3101 3104 3103 3099 3098 3099 3096 3097 3099 3098 3097 3097 3096 3096 3095 3095 3095 3094 3094 3093 3092 3092 3091 3091 3091 3090 3090 3090 3090 3090 3089 3090 3090 3090 3089 3089 3089 3089 3089 3091 3092 3094 3095 3096 3097 3097 3098 3099 3099 3099 3099 3099 3099 3099 3098 3098 3098 3098
3125 3121 3126 3130 3131 3133 3132 3131 3130 3127 3126 3125 3124 3122 3118 3119 3115 3112 3116 3118 3118 3109 3100 3102 3097 3089 3093 3094 3094 3098 3096 3094 3095 3095 3092 3092 3093 3092 3092 3092 3091 3091 3090 3090 3091 3090 3089 3089 3088 3087 3087 3087 3087 3086 3086 3086 3085 3085 3085 3085 3085 3085 3085 3085 3085 3085 3085 3087 3089 3090 3091 3092 3092 3093 3094 3094 3095 3095 3095 3095 3095 3095 3094 3094 3094 3094
3117 3118 3126 3129 3129 3128 3127 3128 3127 3124 3122 3120 3120 3119 3113 3116 3114 3106 3109 3113 3112 3106 3100 3098 3090 3082 3085 3086 3087 3092 3090 3089 3091 3090 3089 3088 3088 3088 3088 3088 3086 3085 3085 3085 3086 3086 3085 3084 3084 3083 3083 3083 3083 3082 3081 3081 3081 3081 3081 3081 3081 3080 3081 3081 3081 3081 3082 3083 3084 3085 3086 3087 3088 3089 3089 3090 3091 3091 3092 3091 3091 3091 3090 3090 3090 3090
3112 3118 3125 3125 3124 3124 3123 3123 3124 3121 3116 3114 3116 3116 3110 3112 3112 3106 3106 3107 3105 3102 3099 3097 3082 3068 3075 3079 3077 3085 3086 3084 3086 3085 3084 3084 3084 3085 3083 3082 3082 3081 3081 3081 3080 3081 3080 3080 3080 3079 3079 3079 3078 3078 3077 3078 3077 3077 3077 3076 3076 3076 3076 3077 3077 3078 3078 3079 3080 3081 3082 3083 3084 3085 3085 3086 3088 3088 3088 3088 3087 3087 3086 3085 3085 3085
3108 3118 3122 3118 3118 3120 3119 3118 3121 3120 3112 3107 3111 3112 3109 3108 3108 3106 3106 3103 3098 3096 3096 3098 3083 3057 3060 3072 3070 3075 3079 3078 3082 3081 3079 3080 3079 3080 3080 3078 3078 3077 3077 3077 3076 3076 3076 3075 3076 3075 3076 3075 3075 3075 3074 3074 3073 3073 3073 3072 3072 3072 3072 3072 3073 3073 3074 3075 3077 3078 3079 3080 3081 3082 3082 3083 3084 3084 3084 3083 3083 3082 3082 3081 3080 3080
3105 3115 3116 3114 3114 3115 3115 3114 3117 3118 3109 3103 3105 3109 3108 3106 3105 3103 3104 3102 3096 3092 3091 3097 3093 3064 3048 3057 3063 3066 3070 3070 3074 3075 3073 3075 3074 3074 3075 3074 3074 3074 3073 3073 3072 3072 3072 3072 3072 3072 3072 3072 3071 3070 3070 3069 3069 3069 3069 3068 3068 3068 3068 3069 3069 3070 3071 3072 3074 3075 3076 3077 3077 3078 3079 3080 3080 3079 3079 3079 3078 3078 3077 3077 3076 3076
3104 3109 3110 3110 3110 3109 3110 3110 3111 3114 3109 3101 3102 3106 3106 3104 3104 3101 3101 3099 3093 3090 3087 3088 3095 3079 3044 3040 3054 3058 3061 3064 3066 3068 3068 3069 3070 3069 3071 3070 3070 3070 3069 3069 3069 3069 3069 3068 3068 3068 3068 3068 3067 3066 3065 3064 3064 3064 3064 3064 3064 3064 3064 3065 3066 3066 3068 3069 3071 3072 3072 3073 3074 3074 3075 3075 3075 3075 3074 3074 3074 3074 3073 3073 3072 3072
3103 3105 3104 3106 3107 3105 3105 3105 3107 3109 3106 3100 3101 3102 3102 3102 3101 3099 3097 3096 3092 3088 3083 3079 3090 3085 3045 3031 3048 3051 3053 3058 3058 3061 3063 3063 3066 3066 3067 3067 3066 3067 3067 3066 3066 3065 3066 3065 3065 3065 3064 3063 3062 3062 3061 3061 3061 3060 3060 3060 3059 3060 3060 3061 3062 3063 3065 3066 3067 3068 3068 3069 3070 3070 3070 3070 3070 3070 3070 3070 3070 3070 3069 3069 3068 3068
3101 3100 3099 3100 3101 3100 3101 3103 3103 3104 3102 3100 3100 3098 3098 3099 3097 3098 3095 3093 3095 3086 3077 3076 3084 3084 3049 3027 3042 3047 3047 3054 3053 3056 3059 3059 3062 3062 3062 3064 3063 3064 3064 3063 3062 3062 3062 3061 3061 3061 3060 3059 3058 3058 3058 3057 3057 3056 3056 3056 3056 3057 3057 3058 3059 3060 3061 3062 3063 3064 3064 3065 3065 3065 3065 3065 3065 3066 3066 3066 3066 3066 3065 3065 3064 3063
3097 3095 3094 3095 3095 3096 3097 3099 3098 3099 3098 3098 3098 3095 3095 3096 3093 3096 3092 3091 3096 3080 3069 3072 3078 3083 3059 3030 3036 3043 3043 3048 3049 3053 3056 3056 3058 3057 3058 3060 3059 3060 3060 3059 3059 3057 3058 3057 3057 3057 3056 3056 3055 3054 3054 3053 3053 3053 3053 3053 3053 3054 3054 3055 3056 3057 3058 3059 3059 3060 3060 3060 3060 3061 3061 3061 3061 3061 3061 3062 3062 3061 3061 3060 3059 3059
3093 3090 3090 3090 3091 3093 3093 3094 3094 3094 3095 3095 3095 3093 3093 3093 3090 3092 3089 3091 3093 3074 3064 3069 3072 3077 3057 3031 3034 3039 3038 3044 3047 3049 3052 3053 3054 3054 3055 3055 3054 3055 3055 3055 3054 3054 3054 3053 3053 3054 3053 3053 3052 3051 3051 3050 3050 3050 3050 3050 3051 3051 3052 3052 3053 3054 3055 3055 3055 3056 3055 3056 3056 3056 3057 3057 3057 3057 3057 3057 3057 3057 3056 3055 3055 3054
3086 3085 3087 3086 3087 3089 3089 3090 3090 3090 3091 3091 3091 3091 3093 3092 3090 3089 3087 3088 3084 3069 3063 3068 3071 3066 3042 3028 3037 3038 3036 3042 3044 3046 3048 3049 3050 3050 3051 3051 3050 3051 3050 3050 3051 3050 3050 3050 3050 3050 3049 3049 3049 3048 3048 3047 3047 3047 3047 3048 3048 3049 3049 3050 3051 3051 3051 3052 3052 3052 3051 3051 3051 3052 3052 3052 3053 3053 3053 3053 3052 3052 3051 3051 3050 3050
3081 3079 3081 3082 3081 3084 3085 3085 3085 3085 3086 3086 3085 3087 3089 3089 3089 3088 3086 3082 3074 3064 3062 3067 3069 3054 3032 3028 3036 3036 3037 3040 3040 3043 3044 3045 3046 3045 3046 3047 3046 3047 3047 3047 3047 3046 3046 3046 3046 3046 3046 3045 3045 3045 3044 3044 3044 3044 3044 3045 3045 3046 3046 3047 3047 3047 3048 3048 3049 3048 3047 3047 3047 3047 3047 3047 3048 3048 3048 3048 3047 3047 3047 3046 3046 3046
3081 3073 3071 3075 3077 3078 3078 3080 3082 3081 3081 3079 3079 3081 3080 3079 3081 3081 3078 3071 3064 3061 3061 3064 3060 3043 3030 3031 3033 3033 3037 3038 3038 3040 3041 3041 3042 3041 3042 3043 3043 3044 3044 3043 3042 3043 3043 3043 3043 3043 3042 3041 3041 3041 3041 3041 3041 3041 3042 3042 3043 3043 3043 3043 3044 3043 3044 3044 3044 3044 3043 3043 3042 3042 3042 3042 3042 3042 3043 3043 3043 3043 3043 3042 3042 3042
3079 3069 3065 3069 3071 3072 3073 3075 3078 3078 3076 3074 3075 3075 3072 3071 3073 3072 3068 3063 3061 3061 3058 3054 3046 3034 3030 3029 3030 3033 3034 3034 3036 3037 3037 3037 3038 3039 3039 3039 3039 3040 3040 3039 3039 3040 3041 3041 3041 3040 3039 3037 3037 3037 3037 3038 3038 3038 3039 3039 3040 3040 3040 3040 3039 3039 3040 3040 3040 3039 3039 3038 3038 3038 3037 3037 3036 3036 3037 3038 3038 3038 3038 3038 3038 3037
3073 3067 3066 3066 3065 3067 3069 3070 3073 3073 3070 3068 3067 3066 3065 3068 3068 3066 3063 3061 3062 3059 3051 3045 3036 3031 3031 3026 3024 3030 3029 3030 3034 3032 3033 3035 3034 3036 3035 3034 3036 3036 3036 3037 3036 3037 3038 3038 3038 3038 3036 3034 3033 3033 3033 3033 3034 3034 3035 3035 3036 3036 3035 3035 3035 3035 3036 3035 3034 3035 3034 3034 3033 3033 3033 3033 3032 3031 3032 3033 3034 3034 3034 3034 3033 3033
3071 3065 3066 3066 3062 3064 3065 3065 3067 3067 3064 3062 3061 3061 3062 3064 3063 3063 3062 3060 3060 3054 3045 3040 3032 3029 3032 3024 3018 3024 3026 3027 3029 3028 3030 3032 3032 3033 3032 3033 3034 3033 3034 3034 3034 3034 3035 3035 3036 3035 3034 3032 3030 3030 3029 3029 3030 3030 3030 3030 3031 3030 3030 3031 3031 3031 3030 3030 3030 3030 3029 3029 3029 3029 3028 3028 3027 3026 3026 3027 3028 3029 3029 3030 3029 3028
3069 3063 3062 3063 3059 3059 3061 3061 3059 3059 3059 3057 3056 3058 3058 3056 3055 3056 3056 3054 3053 3047 3039 3036 3030 3026 3027 3021 3017 3021 3023 3023 3025 3025 3026 3027 3029 3030 3030 3032 3032 3031 3032 3030 3030 3030 3030 3031 3032 3032 3031 3029 3027 3026 3025 3025 3025 3025 3025 3025 3025 3025 3025 3026 3025 3025 3025 3025 3025 3024 3024 3024 3024 3024 3023 3022 3022 3021 3021 3021 3022 3023 3024 3025 3025 3024
3065 3059 3056 3058 3056 3054 3055 3055 3052 3052 3055 3054 3053 3053 3051 3050 3048 3047 3046 3044 3043 3039 3032 3031 3027 3020 3019 3017 3017 3019 3019 3019 3020 3021 3021 3023 3025 3026 3027 3028 3028 3028 3028 3026 3026 3026 3026 3026 3027 3028 3027 3024 3023 3022 3021 3020 3020 3020 3020 3020 3020 3020 3020 3019 3019 3020 3020 3020 3020 3019 3018 3018 3018 3018 3018 3017 3016 3016 3016 3016 3016 3017 3018 3019 3019 3019
3059 3055 3052 3053 3054 3050 3048 3048 3047 3048 3050 3050 3049 3048 3046 3045 3044 3042 3040 3038 3036 3032 3027 3025 3019 3014 3017 3018 3016 3016 3015 3015 3015 3016 3017 3019 3022 3023 3025 3025 3025 3025 3024 3022 3022 3021 3021 3021 3022 3023 3022 3019 3017 3017 3016 3016 3014 3015 3015 3014 3015 3015 3014 3014 3014 3014 3015 3014 3014 3013 3012 3012 3012 3012 3012 3011 3011 3011 3011 3011 3010 3011 3011 3012 3013 3014
3053 3051 3049 3048 3048 3045 3043 3044 3045 3045 3045 3045 3044 3044 3044 3043 3042 3040 3035 3032 3031 3025 3021 3019 3012 3009 3017 3018 3013 3012 3011 3010 3011 3012 3012 3014 3017 3018 3019 3019 3019 3018 3018 3017 3016 3014 3014 3015 3016 3018 3016 3013 3012 3011 3010 3010 3010 3010 3009 3009 3010 3010 3009 3009 3009 3009 3009 3009 3008 3007 3007 3006 3005 3005 3005 3005 3005 3005 3006 3005 3005 3005 3005 3006 3007 3007
3049 3046 3044 3042 3040 3039 3040 3041 3042 3041 3041 3040 3039 3039 3041 3040 3038 3035 3029 3027 3027 3022 3019 3017 3008 3005 3014 3016 3010 3008 3008 3007 3007 3008 3007 3009 3011 3011 3011 3012 3012 3011 3011 3010 3010 3009 3008 3009 3011 3011 3009 3007 3007 3006 3005 3004 3004 3004 3004 3005 3005 3004 3003 3003 3003 3003 3003 3002 3001 3001 3001 3000 2999 2998 2998 2998 2999 2999 3000 3000 2999 2999 2999 3000 3001 3001
3045 3041 3039 3037 3035 3034 3035 3037 3037 3037 3037 3035 3033 3034 3035 3032 3032 3030 3025 3025 3023 3019 3019 3016 3005 3002 3008 3012 3009 3007 3006 3004 3002 3001 3001 3002 3003 3003 3003 3004 3004 3003 3003 3003 3003 3004 3003 3003 3005 3004 3002 3001 3000 3000 2999 2998 2997 2998 2999 3000 3000 2998 2998 2997 2997 2997 2995 2995 2995 2995 2994 2993 2992 2992 2991 2992 2993 2993 2994 2994 2993 2993 2993 2994 2994 2995
3040 3036 3035 3035 3033 3031 3030 3031 3031 3031 3031 3028 3028 3031 3030 3029 3030 3026 3023 3022 3016 3013 3016 3010 2997 2997 3004 3007 3007 3005 3001 2997 2995 2994 2994 2994 2994 2995 2996 2997 2997 2996 2996 2996 2996 2997 2997 2997 2997 2996 2994 2994 2993 2994 2993 2992 2991 2992 2992 2994 2995 2993 2992 2991 2990 2990 2989 2988 2988 2987 2986 2986 2985 2985 2985 2986 2986 2987 2988 2988 2987 2987 2987 2987 2988 2989
3033 3030 3029 3029 3028 3026 3023 3022 3023 3024 3025 3023 3023 3025 3025 3026 3026 3022 3020 3017 3008 3006 3007 2999 2990 2991 2997 3001 3001 2998 2994 2991 2988 2986 2987 2989 2988 2988 2988 2989 2989 2989 2988 2988 2989 2990 2991 2991 2990 2989 2988 2987 2987 2987 2987 2987 2987 2986 2984 2985 2988 2987 2985 2984 2983 2982 2982 2981 2980 2979 2979 2979 2978 2978 2979 2979 2979 2979 2980 2980 2980 2981 2981 2981 2981 2982
3025 3020 3020 3018 3015 3014 3013 3011 3015 3018 3017 3015 3016 3017 3018 3019 3018 3017 3013 3006 3002 2999 2992 2989 2989 2985 2987 2993 2992 2989 2987 2985 2982 2979 2979 2983 2984 2982 2981 2981 2981 2981 2981 2981 2981 2984 2985 2986 2985 2985 2983 2983 2983 2983 2983 2981 2980 2979 2976 2976 2979 2979 2977 2976 2975 2975 2975 2973 2972 2971 2971 2971 2971 2972 2972 2972 2972 2972 2972 2971 2972 2974 2974 2975 2975 2975
3017 3011 3013 3010 3005 3006 3006 3005 3009 3010 3007 3007 3009 3009 3010 3010 3009 3008 3001 2995 2998 2993 2977 2979 2987 2978 2976 2984 2984 2981 2980 2978 2976 2975 2974 2976 2978 2976 2975 2974 2974 2974 2973 2973 2974 2976 2978 2980 2981 2981 2980 2979 2978 2976 2975 2973 2972 2972 2970 2969 2970 2969 2967 2967 2967 2967 2966 2965 2964 2963 2963 2964 2965 2965 2965 2964 2964 2964 2963 2963 2964 2966 2967 2967 2967 2968
3011 3004 3006 3005 2999 3000 3002 3000 3002 3002 2998 3000 3002 3001 3002 3001 2999 2997 2989 2987 2991 2983 2969 2974 2980 2971 2969 2976 2976 2974 2972 2969 2969 2971 2971 2970 2970 2971 2971 2970 2969 2968 2966 2966 2966 2967 2969 2971 2972 2972 2972 2971 2969 2967 2966 2965 2966 2965 2963 2962 2962 2961 2959 2958 2958 2958 2957 2956 2955 2955 2956 2957 2957 2957 2956 2956 2956 2955 2955 2955 2956 2958 2959 2960 2960 2961
3005 2998 3001 3000 2993 2993 2996 2994 2995 2994 2991 2991 2992 2992 2992 2991 2989 2985 2980 2980 2982 2973 2967 2971 2969 2963 2966 2971 2969 2967 2965 2964 2966 2966 2965 2965 2965 2966 2966 2965 2963 2962 2959 2958 2958 2958 2958 2959 2960 2960 2959 2959 2958 2958 2957 2956 2956 2955 2954 2954 2954 2952 2951 2950 2949 2949 2949 2948 2948 2948 2949 2949 2948 2948 2948 2948 2948 2948 2947 2948 2949 2950 2951 2952 2953 2954
3000 2994 2995 2996 2987 2985 2988 2988 2987 2987 2984 2981 2981 2982 2983 2981 2978 2975 2973 2974 2973 2965 2962 2964 2959 2955 2960 2963 2961 2960 2960 2961 2961 2960 2960 2961 2961 2960 2958 2955 2954 2953 2951 2950 2949 2948 2947 2948 2949 2948 2948 2948 2948 2948 2947 2947 2946 2946 2945 2945 2944 2943 2942 2941 2940 2940 2940 2940 2940 2940 2940 2939 2939 2940 2940 2940 2940 2940 2940 2940 2941 2943 2943 2945 2946 2946
2997 2991 2992 2992 2983 2978 2983 2983 2979 2979 2976 2972 2971 2973 2973 2970 2965 2964 2965 2965 2963 2958 2956 2956 2951 2948 2952 2953 2952 2953 2956 2957 2957 2957 2957 2956 2954 2951 2948 2946 2945 2943 2942 2941 2940 2940 2939 2938 2939 2939 2940 2941 2941 2941 2940 2939 2938 2937 2936 2936 2935 2934 2933 2932 2932 2932 2932 2932 2933 2932 2931 2930 2931 2931 2931 2931 2932 2933 2933 2933 2934 2935 2936 2937 2938 2939
2993 2989 2989 2989 2979 2974 2979 2978 2975 2974 2968 2961 2962 2964 2963 2961 2958 2957 2957 2957 2959 2956 2950 2947 2944 2942 2943 2944 2944 2948 2950 2950 2952 2951 2947 2946 2946 2944 2941 2938 2936 2935 2935 2933 2932 2932 2931 2930 2930 2931 2931 2932 2933 2933 2932 2931 2930 2930 2929 2927 2925 2924 2924 2924 2924 2924 2924 2925 2925 2924 2924 2923 2923 2923 2923 2924 2925 2926 2926 2926 2926 2928 2929 2930 2931 2932
2989 2986 2985 2984 2977 2970 2974 2976 2973 2968 2959 2953 2958 2961 2959 2958 2957 2953 2952 2954 2954 2949 2943 2941 2939 2937 2936 2936 2938 2940 2941 2943 2944 2940 2936 2937 2939 2937 2934 2932 2930 2929 2928 2927 2925 2924 2923 2922 2923 2923 2923 2924 2923 2923 2924 2923 2922 2921 2921 2919 2917 2915 2915 2916 2916 2917 2917 2918 2917 2917 2917 2916 2916 2916 2916 2917 2917 2918 2918 2919 2920 2921 2922 2923 2923 2924
2983 2982 2980 2980 2975 2967 2970 2974 2966 2954 2950 2950 2954 2957 2955 2954 2952 2949 2949 2950 2944 2938 2937 2937 2933 2930 2930 2930 2932 2932 2933 2936 2935 2930 2929 2932 2931 2929 2929 2926 2924 2923 2921 2920 2919 2918 2917 2916 2915 2916 2916 2916 2915 2914 2914 2914 2914 2913 2913 2913 2911 2910 2910 2909 2909 2910 2911 2911 2910 2910 2910 2910 2910 2910 2910 2910 2910 2911 2911 2912 2913 2914 2915 2916 2916 2916
2976 2977 2974 2974 2971 2965 2965 2966 2953 2941 2944 2949 2949 2949 2948 2947 2946 2943 2943 2941 2935 2931 2932 2931 2926 2925 2925 2925 2925 2924 2925 2928 2927 2923 2923 2925 2922 2922 2922 2920 2918 2917 2914 2913 2912 2911 2911 2910 2909 2909 2908 2908 2907 2906 2905 2906 2906 2906 2907 2907 2906 2906 2905 2904 2903 2904 2904 2904 2904 2905 2905 2904 2904 2903 2904 2904 2904 2905 2906 2907 2908 2908 2909 2909 2909 2910
2971 2971 2970 2967 2965 2962 2958 2953 2943 2938 2940 2942 2941 2941 2939 2938 2938 2937 2936 2933 2928 2925 2926 2925 2923 2922 2921 2919 2919 2918 2917 2919 2919 2917 2916 2915 2914 2914 2913 2912 2911 2910 2908 2907 2906 2905 2905 2903 2903 2903 2902 2901 2901 2899 2899 2900 2900 2900 2900 2900 2900 2900 2899 2899 2898 2897 2897 2897 2898 2898 2898 2898 2898 2897 2898 2898 2899 2900 2901 2901 2902 2902 2903 2903 2903 2904
2966 2966 2965 2961 2958 2957 2953 2946 2941 2938 2935 2933 2935 2935 2933 2932 2933 2933 2931 2928 2923 2920 2920 2920 2919 2918 2916 2914 2913 2911 2910 2911 2910 2909 2907 2906 2905 2904 2904 2904 2904 2903 2902 2901 2900 2899 2899 2898 2897 2897 2895 2895 2895 2893 2894 2894 2894 2895 2894 2894 2894 2894 2894 2894 2893 2892 2891 2891 2891 2891 2891 2891 2891 2892 2892 2893 2894 2895 2895 2895 2896 2896 2896 2896 2897 2897
2960 2959 2960 2956 2952 2953 2951 2944 2940 2937 2932 2930 2931 2930 2929 2929 2929 2928 2927 2922 2919 2917 2916 2915 2915 2914 2912 2910 2908 2907 2906 2904 2901 2901 2900 2898 2896 2896 2896 2896 2897 2897 2896 2895 2894 2893 2892 2891 2891 2891 2890 2889 2889 2888 2888 2888 2888 2889 2888 2888 2888 2888 2888 2888 2887 2887 2886 2885 2885 2885 2885 2885 2885 2886 2886 2887 2888 2888 2888 2888 2888 2889 2889 2890 2890 2891
2954 2954 2954 2952 2948 2948 2946 2940 2936 2934 2929 2926 2925 2925 2925 2925 2925 2924 2920 2913 2912 2914 2913 2912 2911 2909 2908 2907 2905 2905 2904 2901 2897 2895 2893 2892 2891 2891 2890 2890 2890 2890 2889 2889 2888 2887 2886 2885 2884 2884 2884 2884 2883 2882 2882 2881 2882 2882 2881 2882 2881 2880 2880 2880 2880 2880 2880 2879 2880 2879 2878 2878 2878 2879 2880 2880 2880 2880 2880 2881 2881 2882 2883 2883 2884 2884
2948 2948 2948 2946 2944 2943 2941 2935 2932 2930 2926 2923 2922 2921 2921 2921 2922 2922 2916 2910 2909 2909 2908 2908 2907 2905 2904 2904 2903 2902 2901 2899 2895 2892 2889 2887 2886 2886 2886 2885 2885 2884 2883 2883 2882 2881 2880 2879 2878 2877 2877 2878 2877 2877 2876 2875 2875 2875 2875 2875 2874 2873 2872 2873 2872 2872 2872 2872 2872 2872 2872 2872 2871 2871 2872 2873 2873 2873 2873 2874 2875 2876 2876 2877 2877 2878
2944 2943 2943 2942 2940 2939 2937 2933 2930 2927 2924 2922 2920 2919 2919 2919 2919 2918 2915 2911 2910 2907 2905 2905 2904 2902 2901 2900 2899 2897 2896 2894 2892 2889 2886 2884 2881 2880 2880 2879 2878 2878 2878 2878 2877 2875 2874 2872 2872 2871 2871 2872 2872 2871 2870 2869 2868 2868 2868 2868 2868 2867 2866 2865 2864 2864 2864 2864 2864 2864 2864 2864 2864 2864 2864 2864 2865 2866 2867 2867 2868 2868 2869 2870 2870 2871
2943 2940 2938 2937 2937 2935 2932 2930 2926 2921 2920 2920 2918 2916 2918 2919 2917 2913 2910 2908 2907 2905 2902 2901 2900 2899 2898 2896 2894 2893 2891 2889 2887 2884 2882 2880 2877 2875 2873 2872 2871 2871 2871 2871 2871 2870 2868 2866 2866 2865 2866 2866 2866 2865 2864 2862 2861 2861 2861 2860 2860 2860 2860 2859 2857 2856 2856 2856 2855 2856 2856 2857 2857 2858 2857 2858 2858 2859 2859 2861 2861 2862 2862 2863 2863 2864
2939 2937 2933 2932 2933 2930 2926 2923 2920 2917 2917 2919 2917 2915 2915 2916 2914 2911 2907 2904 2903 2901 2898 2896 2895 2894 2893 2891 2889 2888 2886 2885 2882 2879 2877 2874 2872 2870 2868 2866 2865 2864 2864 2865 2864 2863 2861 2859 2858 2858 2859 2860 2859 2858 2857 2856 2854 2854 2854 2853 2852 2852 2852 2851 2851 2850 2850 2849 2848 2848 2849 2849 2850 2850 2851 2852 2852 2853 2854 2855 2856 2856 2856 2856 2856 2857
2933 2933 2930 2928 2927 2926 2921 2917 2916 2915 2916 2917 2916 2914 2913 2912 2910 2908 2904 2901 2899 2898 2896 2894 2891 2890 2888 2886 2884 2882 2881 2879 2876 2874 2871 2868 2866 2865 2863 2861 2860 2859 2858 2858 2857 2855 2853 2851 2850 2850 2850 2852 2852 2850 2850 2849 2848 2847 2847 2846 2845 2844 2843 2843 2843 2843 2843 2843 2842 2841 2841 2841 2842 2842 2844 2844 2845 2846 2847 2848 2849 2850 2850 2850 2850 2849
2927 2928 2927 2923 2921 2920 2916 2914 2913 2913 2912 2913 2912 2910 2909 2907 2905 2903 2900 2898 2896 2894 2892 2890 2888 2886 2885 2882 2879 2876 2873 2871 2869 2867 2865 2863 2861 2860 2858 2857 2855 2854 2852 2851 2849 2847 2845 2842 2841 2841 2840 2842 2843 2842 2842 2842 2842 2841 2841 2840 2838 2836 2835 2835 2835 2835 2835 2836 2836 2835 2835 2835 2835 2836 2836 2837 2838 2839 2840 2841 2842 2842 2843 2843 2842 2842
2921 2922 2921 2918 2916 2913 2909 2909 2911 2910 2908 2907 2906 2905 2904 2902 2900 2898 2895 2893 2891 2889 2887 2886 2883 2881 2879 2877 2874 2870 2867 2865 2863 2860 2859 2857 2855 2855 2854 2852 2850 2848 2847 2844 2842 2840 2837 2835 2834 2833 2831 2831 2832 2833 2834 2834 2835 2835 2834 2833 2831 2829 2828 2827 2827 2827 2827 2827 2828 2829 2829 2829 2829 2829 2829 2829 2830 2831 2832 2833 2834 2835 2836 2836 2836 2836
2916 2916 2914 2912 2911 2908 2904 2904 2905 2904 2902 2902 2901 2898 2898 2896 2894 2893 2891 2887 2885 2883 2881 2879 2877 2875 2873 2871 2868 2864 2861 2860 2857 2854 2852 2851 2849 2848 2847 2845 2843 2842 2840 2838 2836 2834 2831 2829 2827 2826 2823 2822 2823 2824 2824 2825 2826 2827 2826 2825 2824 2823 2821 2820 2819 2818 2818 2819 2819 2820 2821 2821 2822 2822 2822 2822 2823 2823 2824 2825 2826 2827 2829 2830 2830 2830
2912 2910 2908 2906 2905 2902 2899 2899 2900 2897 2895 2896 2896 2894 2893 2890 2888 2886 2885 2882 2879 2876 2874 2873 2871 2869 2867 2865 2862 2859 2855 2854 2852 2849 2846 2844 2843 2841 2839 2838 2836 2835 2833 2832 2830 2828 2825 2823 2820 2818 2815 2815 2815 2815 2815 2816 2817 2817 2816 2815 2816 2815 2813 2811 2810 2810 2810 2810 2811 2811 2812 2812 2812 2813 2814 2815 2815 2816 2816 2817 2818 2820 2821 2822 2823 2823
2906 2903 2903 2902 2898 2895 2894 2895 2896 2892 2888 2889 2890 2889 2887 2885 2882 2880 2878 2875 2873 2870 2867 2866 2864 2863 2861 2859 2856 2853 2849 2847 2846 2843 2839 2837 2836 2834 2831 2830 2827 2826 2825 2824 2822 2820 2818 2816 2813 2809 2807 2807 2808 2807 2806 2806 2806 2807 2807 2806 2806 2805 2803 2802 2800 2800 2800 2801 2802 2803 2803 2803 2803 2803 2804 2806 2807 2808 2808 2809 2811 2812 2813 2814 2815 2816
2900 2898 2898 2896 2890 2888 2888 2890 2890 2887 2883 2883 2885 2884 2881 2879 2877 2874 2871 2869 2866 2864 2861 2859 2857 2855 2854 2853 2851 2848 2844 2841 2839 2836 2832 2830 2829 2826 2824 2821 2818 2816 2815 2814 2812 2810 2809 2806 2804 2802 2800 2799 2799 2798 2797 2797 2796 2797 2798 2797 2796 2794 2792 2791 2790 2789 2790 2792 2793 2794 2794 2793 2793 2794 2794 2795 2797 2799 2800 2801 2802 2804 2805 2806 2808 2809